STARLINK-4427 (53210 NORAD) Tracking and Keplerian Element Data

This shows tracking and keplerian element data for the satellite.

Feedback or suggestion? Click here.




ElementValue
Catalog53210
NameSTARLINK-4427
Epoch Orbit1072
Epoch Day270.16045806
Epoch Year2022
RAAN329.9844
Inclination97.6517
Eccentricity0.0001775
Argument of Perigee109.2842
Mean Anonmoly250.8574
Mean Motion15.01255316
Decay Rate2.02E-06
L11 53210U 22084X 22270.16045806 .00000202 00000+0 20295-4 0 9995
L22 53210 97.6517 329.9844 0001775 109.2842 250.8574 15.01255316 10723

Live tracking and technical data element details for STARLINK-4427 (NORAD 53210). STARLINK-4427 can be tracked NOW for your location showing map with azimuth and elevation plus other details from your city location.

Track the satellite on the map from your city or location and see movement details for azimuth, elevation, latitude, longitude, range, height, and movement on the map or in text.







IsCatalogInMostPopularTable: catalog: 53210, numindb: 3
Update: records affected: 1



GetName: 53210 STARLINK-4427

Hit Count: updated at: Thu, 29 Sep 2022 11:44:48 GMT